Reflectivity
-20 -20 -20 -20 -20 -20 -20 -20 -20 -20 -20 -20 -20 -20 -20 -20 -20 -20 -20 -20 -20 -20 -20 -20 -19 9 1 -20 -20 -20 -20 -11 14 16 13 8 16 2
-20 -20 -20 -20 -20 -20 -20 -20 -20 -20 -20 -20 -20 -20 -20 -20 -20 -20 -20 -20 -20 -20 -20 11 -20 -20 -20 -20 -20 -20 -20 -20 -4 7 11 9 5 10
-20 -20 -20 -20 -20 -20 -20 -20 -20 -20 -20 -20 -20 -20 -20 -20 -20 -20 -20 -20 -20 -20 -20 -20 -20 -20 -20 -20 -20 -20 -20 -20 -20 -20 -4 4 5 4
-20 -20 -20 -20 -20 -20 -20 -20 -20 -20 -20 -20 -20 -20 -20 -20 -20 -20 -20 -20 -20 -20 -20 -20 -20 -20 -20 -20 -20 -20 -20 -20 -20 -20 -19 -20 -3 -4
-20 -20 -20 -20 -20 -20 -20 -20 -20 -20 -20 -20 -20 -20 -20 -20 -20 -20 -20 -20 -20 -20 -20 -20 -20 -20 -20 -20 -20 -20 -20 -20 -20 -20 -20 -20 -19 -16
-20 -20 -20 -20 -20 -20 -20 -20 -20 -20 -20 -20 -20 -20 -20 -20 -20 -20 -20 -20 -20 -20 -20 -20 -20 -20 -20 -20 -20 -20 -20 -20 -20 -20 -20 -20 -20 -20
-20 -20 -20 -20 -20 -20 -20 -20 -20 -20 -20 -20 -20 -20 -20 -20 -20 -20 -20 -20 -20 -20 -20 -20 -20 -20 -20 -20 -20 -20 -20 -14 -14 -20 -20 -20 -20 -18
-20 -20 -20 -20 -20 -20 -20 -20 -20 -20 -20 -20 -20 -20 -20 -20 -20 -20 -20 -20 -20 -20 -20 -20 -20 -20 -20 -20 -20 -20 -8 -9 -20 -20 -20 -20 -20 -20
-20 -20 -20 -20 -20 -20 -20 -20 -20 -20 -20 -20 -20 -20 -20 -20 -20 -20 -20 -20 -20 -20 -20 -20 -20 -20 -20 -20 -20 -20 -20 -20 -20 -20 -20 -20 -20 -20
-20 -20 -20 -20 -20 -20 -20 -20 -20 -20 -20 -20 -20 -20 -20 -20 -20 -20 -20 -20 -20 -20 -20 -20 -20 -20 -20 -20 -20 -20 -20 -20 -20 -20 -20 -20 -20 -20
-20 -20 -20 -20 -20 -20 -20 -20 -20 -20 -20 -20 -20 -20 -20 -20 -20 -20 -20 -20 -20 -20 -20 -20 -20 -20 -20 -20 -20 -20 -20 -20 -20 -20 -20 -20 -20 -20
-20 -20 -20 -20 -20 -20 -20 -20 -20 -20 -20 -20 -20 -20 -20 -20 -20 -20 -20 -20 -20 -20 -20 -20 -20 -20 -20 -20 -20 -20 -20 -20 -20 -20 -20 -20 -20 -20
-20 -20 -20 -20 -20 -20 -20 -20 -20 -20 -20 -20 -20 -20 -20 -20 -20 -20 -20 -20 -20 -20 -20 -20 -20 -20 -20 -20 -20 -20 -20 -20 -20 -20 -20 -20 -20 -20
-20 -20 -20 -20 -20 -20 -20 -20 -20 -20 -20 -20 -20 -20 -20 -20 -20 -20 -20 -20 -20 -20 -20 -20 -20 -20 -20 -20 -20 -20 -20 -20 -20 -20 -20 -20 -20 -20
-20 -20 -20 -20 -20 -20 -20 -20 -20 -20 -20 -20 -20 -20 -20 -20 -20 -20 -20 -20 -20 -20 -20 -20 -20 -20 -20 -20 -20 -20 -20 -20 -20 -20 -20 -20 -20 -20
-20 -20 -20 -20 -20 -20 -20 -20 -20 -20 -20 -20 -20 -20 -20 -20 -20 -20 -20 -20 -20 -20 -20 -20 -20 -20 -20 -20 -20 -20 -20 -20 -20 -20 -20 -20 2 -4
-20 -20 -20 -20 -20 -20 -20 -20 -20 -20 -20 -20 -20 -20 -20 -20 -20 -20 -20 -20 -20 -20 -20 -20 -20 -20 -20 -20 -20 -20 -20 -20 -20 -20 -20 -4 -20 -20
0 -20 -20 -20 -20 -20 -20 -20 -20 -20 -20 -20 -20 -20 -20 -20 -20 -20 -20 -20 -20 -20 -20 -20 -20 -20 -20 -20 -20 -20 -20 -20 -20 -15 -20 -20 -20 -20
-19 -20 -20 -20 -20 -20 -20 -20 -20 -20 -17 -16 -17 5 8 8 7 3 5 4 -20 -20 -20 -20 -20 -20 -20 -20 -20 -20 -20 -20 -20 -20 -20 -20 -20 -20
-7 -20 -20 -20 -20 -20 -20 -20 -20 -20 -20 -20 -20 -20 -20 2 -3 -1 -1 1 -6 -20 -20 -20 -20 -20 -20 -20 -20 -20 -20 -17 -20 -20 -20 -20 -20 -20
-20 -20 -20 -20 -20 -20 -20 -20 -20 -20 -20 -20 -20 -20 -20 -20 -20 -20 -20 -3 1 -9 -10 -20 -20 -20 -20 -20 -20 -20 -20 -20 -20 -20 -20 -5 -20 -20
-20 -20 -20 -20 -20 -20 -20 -20 -20 -20 -20 -20 -20 -20 -20 -20 -20 -20 -20 -12 -4 -1 -7 -20 -20 -20 -20 -15 -20 -20 -20 -20 -20 -20 -20 -5 -10 -19
-20 -20 -20 -20 -20 -20 -20 -20 -20 -20 -20 -20 -20 -20 -20 -20 -20 -20 -20 -20 -20 -20 -20 -20 -20 -20 -20 -19 1 -14 -20 -20 -20 -20 -20 -20 -20 -20
Wind_Speed
4 5 3 2 3 3 2 2 2 2 1 3 3 5 4 4 7 6 6 15 18 19 19 19 16 18 20 21 21 22 22 23 22 21 21 21 19 15
3 5 3 2 3 3 3 3 3 2 1 0 2 3 4 5 7 6 6 10 16 17 17 15 17 21 22 22 21 20 20 21 22 23 23 22 22 22
3 4 4 3 2 3 2 2 2 2 2 3 2 3 3 5 5 5 5 5 6 16 15 14 18 23 21 21 20 20 21 21 22 24 24 24 23 22
4 4 3 2 3 2 2 2 2 1 2 2 2 2 2 3 4 4 5 5 7 12 13 15 21 20 20 20 20 20 20 21 23 24 24 24 25 24
5 5 4 3 3 1 1 1 1 1 1 0 3 2 2 2 3 3 4 4 6 12 10 18 18 21 21 20 21 20 22 24 24 24 24 24 24 24
5 4 4 4 3 3 1 1 1 1 1 1 2 2 2 3 2 5 7 6 7 3 8 13 13 16 20 20 19 19 23 23 22 23 24 23 23 26
5 5 5 5 5 5 2 2 1 0 1 1 2 2 2 3 4 4 3 6 5 2 8 5 4 3 5 13 16 22 22 19 21 23 25 24 23 24
6 6 5 8 7 7 7 7 5 3 2 1 2 2 3 2 2 3 4 5 6 3 10 11 3 4 3 4 20 19 16 20 22 25 26 25 25 25
6 5 5 4 8 5 8 9 9 10 9 4 4 3 2 2 3 3 2 2 3 8 6 5 3 4 4 8 20 14 15 20 26 25 25 28 29 28
7 7 7 7 7 7 5 5 5 5 5 5 5 5 5 5 3 3 4 4 4 4 2 4 4 7 8 6 15 10 18 25 26 25 28 31 28 27
7 6 7 7 10 13 6 6 5 6 6 12 13 12 11 10 8 3 3 4 5 2 2 1 4 8 7 4 4 14 25 20 25 21 30 30 28 29
6 7 16 10 15 16 7 6 7 6 4 5 5 4 5 6 11 5 3 3 2 3 2 5 3 4 8 3 4 8 5 15 22 27 26 28 28 12
7 6 7 18 18 16 16 6 7 5 7 5 4 3 4 4 4 4 5 4 3 4 4 2 1 2 3 8 7 7 6 9 11 10 21 23 25 29
7 6 6 17 18 16 13 13 15 13 4 4 3 4 5 6 6 6 6 6 5 6 4 4 3 3 3 9 10 7 11 10 8 10 9 15 24 25
6 7 10 13 15 13 16 15 15 5 4 4 6 6 6 5 6 4 5 5 5 4 5 4 3 3 2 4 11 13 13 9 9 6 12 11 11 10
12 10 10 10 10 8 7 5 3 3 4 6 7 6 3 2 5 4 4 3 4 4 6 6 5 4 3 4 8 15 11 9 11 10 11 12 9 9
5 3 3 2 2 2 2 3 3 4 6 7 7 7 7 6 7 4 5 4 5 4 3 2 3 4 4 5 11 11 12 11 9 10 13 12 9 9
4 3 4 4 5 5 6 6 6 9 7 7 7 7 7 7 7 5 5 4 6 7 4 2 1 3 3 8 17 12 8 7 8 8 12 13 12 9
4 5 6 6 6 6 6 6 6 6 6 5 5 4 3 4 8 5 4 5 8 7 4 3 3 3 8 13 5 16 11 4 10 11 10 10 14 12
1 1 1 1 2 3 4 5 5 5 4 5 4 4 4 5 7 8 7 8 9 9 5 3 3 5 7 11 12 11 18 9 9 13 12 11 14 28
2 2 3 3 4 5 5 5 6 6 6 6 7 6 5 4 8 8 9 17 18 10 10 6 6 15 5 4 11 12 7 14 18 13 13 12 15 16
2 4 5 5 6 6 6 6 7 7 6 7 8 7 6 3 5 8 8 9 9 9 10 7 4 2 0 8 13 15 11 8 11 23 28 24 12 14
5 5 5 6 6 6 7 7 8 8 7 8 8 7 7 6 8 9 9 9 9 9 9 9 6 2 7 8 15 13 17 13 10 12 11 21 25 30
Wind_Direction
90 97 98 84 74 67 71 98 136 128 330 338 9 11 347 342 340 346 342 356 5 0 1 358 359 7 360 354 352 352 352 352 345 337 331 322 309 262
85 95 78 62 62 51 50 56 58 105 115 294 315 321 330 342 334 345 334 355 359 358 358 1 9 4 350 349 349 348 347 345 345 344 340 330 324 314
114 119 112 114 100 78 68 67 68 82 135 302 275 309 311 332 332 335 337 351 344 352 356 358 359 352 353 352 352 350 350 349 345 341 339 339 332 320
153 138 146 128 125 122 115 115 126 122 140 233 269 287 274 324 318 336 343 352 331 341 358 10 351 352 349 351 351 349 348 348 345 341 338 337 337 331
178 174 181 163 164 159 130 113 75 42 50 84 302 308 295 342 328 318 331 337 328 340 12 352 352 349 346 346 348 349 347 345 344 349 348 346 338 335
199 196 197 195 193 183 198 208 100 40 350 339 284 287 295 311 330 346 351 352 330 341 357 342 336 341 340 344 337 341 344 340 341 351 348 346 343 338
209 209 209 209 203 192 179 212 118 46 335 321 311 314 309 337 9 335 323 326 319 28 342 327 317 300 311 333 333 340 341 346 358 350 345 343 345 343
203 215 218 219 217 229 240 233 201 178 219 214 227 264 270 284 332 342 337 353 337 344 341 318 298 322 299 308 328 338 349 359 352 345 343 340 339 338
200 199 210 207 211 217 239 236 245 247 244 214 242 227 275 258 299 323 296 240 258 308 325 292 327 319 325 323 324 335 1 354 348 342 341 339 334 332
206 199 199 204 206 197 208 233 245 256 269 274 237 235 227 264 249 252 280 278 283 282 333 286 326 321 321 315 320 343 348 348 347 333 336 332 330 328
207 202 202 205 217 220 201 224 232 254 272 279 273 244 259 278 289 316 308 320 316 283 340 283 332 324 318 314 315 345 342 332 333 328 330 322 327 324
207 206 225 204 220 230 221 204 226 238 249 280 292 307 309 299 295 284 269 266 245 334 273 350 345 7 320 293 326 317 312 330 332 324 319 318 325 325
214 218 217 230 224 228 232 193 221 219 247 255 241 245 251 255 251 249 245 222 198 223 268 86 241 308 222 305 304 313 328 327 315 308 312 317 322 322
211 214 209 224 233 238 240 232 234 246 224 225 235 246 249 252 252 239 233 231 222 235 235 215 244 203 258 295 297 320 316 313 305 314 313 320 315 311
192 204 211 221 232 240 243 240 238 234 216 225 251 259 254 247 243 255 245 242 253 244 257 227 217 256 225 265 293 305 316 312 305 306 312 302 298 298
200 219 219 227 237 240 250 257 255 219 230 250 262 264 257 230 239 227 232 220 247 247 222 224 221 185 268 248 288 294 295 289 309 305 301 297 297 315
128 122 143 162 186 217 238 244 251 258 259 264 265 267 260 256 260 224 236 240 241 253 250 246 239 230 241 260 291 277 287 290 295 313 303 302 302 298
202 157 192 205 220 228 234 237 232 244 240 244 246 247 257 259 259 251 242 222 246 256 247 221 210 324 284 265 259 274 279 291 307 304 301 299 304 302
216 217 219 212 218 226 235 238 240 242 249 240 248 246 237 241 274 273 253 254 268 263 233 192 177 157 293 289 267 272 280 296 308 292 295 295 293 298
59 156 195 227 239 232 237 242 250 255 245 253 249 225 226 240 257 262 263 266 273 276 268 219 186 206 234 270 286 292 275 282 300 293 300 295 286 292
227 221 228 217 237 246 252 253 252 252 250 249 255 256 242 210 255 265 269 275 275 271 269 259 217 240 241 318 286 282 280 284 290 290 297 301 306 301
262 253 254 256 257 257 257 259 260 261 264 264 260 255 251 217 251 265 269 272 265 261 265 269 258 266 81 263 275 286 289 285 278 293 289 286 292 289
244 244 249 254 257 256 254 253 254 256 252 249 253 254 252 252 254 256 258 257 259 263 264 269 261 181 248 257 270 284 290 293 295 293 286 283 287 291